DW7364 Weather Reports


time (UTC)temp
C
wind
direction
speed
KPH
gust
KPH
rain 1hr
cm
rain 24hr
cm
rain mn
cm
humidity
%
barometer
mb
20260503174937 13 284 33.8 24.1 0.00 0.00 0.00 35 1012.0
20260503174435 13 248 4.8 30.6 0.00 0.00 0.00 35 1012.3
20260503173940 13 313 14.5 17.7 0.00 0.00 0.00 39 1012.2
20260503173431 14 270 24.1 24.1 0.00 0.00 0.00 37 1012.2
20260503172937 13 330 14.5 17.7 0.00 0.00 0.00 38 1012.3
20260503172431 13 306 11.3 29.0 0.00 0.00 0.00 39 1012.3
20260503171931 15 299 6.4 20.9 0.00 0.00 0.00 35 1012.3
20260503171434 13 303 16.1 35.4 0.00 0.00 0.00 39 1012.2
20260503170931 12 295 29.0 35.4 0.00 0.00 0.00 37 1012.2
20260503170440 13 95 9.7 25.7 0.00 0.00 0.00 37 1012.3
20260503150931 11 306 16.1 19.3 0.00 0.00 0.00 44 1012.9
20260503150432 11 152 1.6 17.7 0.00 0.00 0.00 45 1012.9
20260503130934 10 346 19.3 19.3 0.00 0.00 0.00 51 1012.8
20260503130434 9 355 11.3 19.3 0.00 0.00 0.00 52 1012.9
20260503110431 7 312 6.4 16.1 0.00 0.00 0.00 56 1012.1
20260503090431 7 338 0.0 4.8 0.00 0.00 0.00 59 1010.5
20260503081437 6 5 0.0 0.0 0.00 0.00 0.00 64 1010.2
20260503080931 6 5 0.0 0.0 0.00 0.00 0.00 64 1010.2
20260503080439 6 5 0.0 0.0 0.00 0.00 0.00 63 1010.1
20260503072932 8 11 1.6 3.2 0.00 0.00 0.00 58 1009.9
20260503072435 8 336 0.0 0.0 0.00 0.00 0.00 56 1010.0
20260503071940 8 336 0.0 4.8 0.00 0.00 0.00 56 1010.0
20260503071440 8 42 0.0 4.8 0.00 0.00 0.00 55 1010.0
20260503070937 8 327 0.0 3.2 0.00 0.00 0.00 54 1010.0
20260503070434 8 336 1.6 4.8 0.00 0.00 0.00 54 1010.0
20260503054934 9 288 0.0 4.8 0.00 0.00 0.00 53 1010.3
20260503054431 9 296 4.8 3.2 0.00 0.00 0.00 54 1010.5
20260503053938 9 281 0.0 3.2 0.00 0.00 0.00 54 1010.5
20260503053434 10 293 1.6 3.2 0.00 0.00 0.00 53 1010.5
20260503052937 10 303 0.0 4.8 0.00 0.00 0.00 53 1010.6
20260503052431 10 273 0.0 1.6 0.00 0.00 0.00 53 1010.7
20260503051935 10 273 1.6 1.6 0.00 0.00 0.00 52 1010.7
20260503051434 10 275 1.6 4.8 0.00 0.00 0.00 51 1010.7
20260503050931 10 289 0.0 3.2 0.00 0.00 0.00 51 1010.7
20260503050431 10 310 0.0 1.6 0.00 0.00 0.00 51 1010.6
20260503045941 10 329 0.0 1.6 0.00 0.00 0.00 51 1010.7
20260503045437 10 327 1.6 3.2 0.00 0.00 0.00 50 1010.7
20260503044934 10 298 0.0 3.2 0.00 0.00 0.00 51 1010.8
20260503044431 10 292 0.0 3.2 0.00 0.00 0.00 50 1010.9
20260503043931 10 301 0.0 3.2 0.00 0.00 0.00 50 1010.9
20260503043431 10 309 0.0 9.7 0.00 0.00 0.00 49 1011.0
20260503042931 10 302 4.8 8.0 0.00 0.00 0.00 49 1010.9
20260503042432 11 265 4.8 8.0 0.00 0.00 0.00 48 1011.0
20260503041931 11 327 0.0 8.0 0.00 0.00 0.00 47 1010.9
20260503041434 11 346 0.0 8.0 0.00 0.00 0.00 47 1010.9
20260503040937 11 258 1.6 4.8 0.00 0.00 0.00 48 1011.0
20260503040434 11 355 6.4 6.4 0.00 0.00 0.00 47 1011.0
20260503035932 11 317 4.8 9.7 0.00 0.00 0.00 46 1011.0
20260503035435 11 277 4.8 6.4 0.00 0.00 0.00 47 1010.9
20260503034931 11 285 0.0 9.7 0.00 0.00 0.00 47 1011.0
20260503034437 11 317 0.0 4.8 0.00 0.00 0.00 47 1011.0
20260503033931 11 304 0.0 11.3 0.00 0.00 0.00 46 1010.9
20260503033431 11 302 9.7 12.9 0.00 0.00 0.00 47 1010.9
20260503032932 11 305 1.6 6.4 0.00 0.00 0.00 46 1010.9
20260503032435 11 283 4.8 4.8 0.00 0.00 0.00 47 1010.8
20260503031931 11 291 6.4 9.7 0.00 0.00 0.00 47 1010.8
20260503031432 11 296 4.8 8.0 0.00 0.00 0.00 47 1010.9
20260503030937 11 310 1.6 11.3 0.00 0.00 0.00 47 1010.8
20260503030434 11 307 1.6 4.8 0.00 0.00 0.00 48 1010.8
20260503025931 11 309 0.0 9.7 0.00 0.00 0.00 48 1010.9
20260503025434 11 277 4.8 4.8 0.00 0.00 0.00 49 1011.0
20260503024931 11 314 1.6 3.2 0.00 0.00 0.00 48 1011.0
20260503024431 11 309 0.0 4.8 0.00 0.00 0.00 48 1011.0
20260503023932 11 273 0.0 4.8 0.00 0.00 0.00 47 1011.0
20260503023434 11 279 0.0 3.2 0.00 0.00 0.00 47 1011.0
20260503022935 11 291 4.8 8.0 0.00 0.00 0.00 46 1011.0
20260503022431 12 265 14.5 9.7 0.00 0.00 0.00 47 1011.0
20260503021931 12 274 0.0 6.4 0.00 0.00 0.00 46 1011.0
20260503021437 12 289 1.6 9.7 0.00 0.00 0.00 46 1011.0
20260503020935 12 292 0.0 4.8 0.00 0.00 0.00 46 1011.1
20260503020434 12 284 0.0 6.4 0.00 0.00 0.00 46 1011.0
20260503015934 12 297 6.4 4.8 0.00 0.00 0.00 45 1011.0
20260503015437 12 275 0.0 9.7 0.00 0.00 0.00 45 1010.9
20260503014935 12 275 1.6 6.4 0.00 0.00 0.00 44 1010.9
20260503014436 12 311 1.6 4.8 0.00 0.00 0.00 44 1010.9
20260503013934 12 302 6.4 6.4 0.00 0.00 0.00 44 1010.9
20260503013431 12 311 1.6 6.4 0.00 0.00 0.00 43 1010.8
20260503012940 12 302 1.6 6.4 0.00 0.00 0.00 43 1010.9
20260503012431 12 299 0.0 9.7 0.00 0.00 0.00 43 1010.8
20260503011940 12 290 0.0 11.3 0.00 0.00 0.00 42 1010.9
20260503011431 12 315 9.7 11.3 0.00 0.00 0.00 42 1010.9
20260503010931 12 311 6.4 4.8 0.00 0.00 0.00 42 1010.9
20260503010431 12 301 1.6 9.7 0.00 0.00 0.00 43 1010.8
20260503005934 12 257 1.6 4.8 0.00 0.00 0.00 42 1010.7
20260503005434 12 300 4.8 8.0 0.00 0.00 0.00 42 1010.6
20260503004934 12 293 1.6 9.7 0.00 0.00 0.00 42 1010.4
20260503004431 12 297 1.6 6.4 0.00 0.00 0.00 42 1010.4
20260503003931 13 252 4.8 6.4 0.00 0.00 0.00 43 1010.5
20260503003434 13 288 4.8 9.7 0.00 0.00 0.00 43 1010.3
20260503002931 13 315 6.4 14.5 0.00 0.00 0.00 43 1010.3
20260503002431 13 286 9.7 9.7 0.00 0.00 0.00 43 1010.2
20260503001931 13 306 0.0 1.6 0.00 0.00 0.00 43 1010.3
20260503001434 13 323 0.0 4.8 0.00 0.00 0.00 42 1010.2
20260503000931 13 288 0.0 4.8 0.00 0.00 0.00 42 1010.1
20260503000441 13 330 6.4 4.8 0.00 0.00 0.00 40 1010.1
20260502235934 13 306 0.0 4.8 0.00 0.00 0.00 40 1010.1
20260502235434 13 245 6.4 4.8 0.00 0.00 0.00 40 1010.1
20260502234937 13 320 1.6 6.4 0.00 0.00 0.00 39 1010.1
20260502234437 14 300 1.6 9.7 0.00 0.00 0.00 38 1010.0
20260502233933 14 317 4.8 8.0 0.00 0.00 0.00 38 1009.9
20260502233438 14 305 4.8 12.9 0.00 0.00 0.00 37 1009.9
20260502232935 14 229 4.8 12.9 0.00 0.00 0.00 38 1009.8
20260502232434 15 311 9.7 11.3 0.00 0.00 0.00 36 1009.8
20260502231934 15 311 1.6 16.1 0.00 0.00 0.00 36 1010.0
20260502231432 15 327 9.7 17.7 0.00 0.00 0.00 36 1010.0
20260502230933 15 317 11.3 16.1 0.00 0.00 0.00 35 1010.0
20260502230435 15 176 6.4 12.9 0.00 0.00 0.00 36 1009.9
20260502225931 15 313 1.6 14.5 0.00 0.00 0.00 38 1009.8
20260502225440 15 209 6.4 16.1 0.00 0.00 0.00 36 1009.8
20260502224940 16 312 6.4 16.1 0.00 0.00 0.00 37 1009.7
20260502224431 16 290 9.7 16.1 0.00 0.00 0.00 35 1009.7
20260502223931 16 317 1.6 22.5 0.00 0.00 0.00 36 1009.6
20260502223431 16 236 1.6 9.7 0.00 0.00 0.00 35 1009.5
20260502222937 16 282 1.6 6.4 0.00 0.00 0.00 35 1009.5
20260502222431 16 214 1.6 4.8 0.00 0.00 0.00 36 1009.6
20260502221934 16 243 4.8 11.3 0.00 0.00 0.00 34 1009.5
20260502221440 16 205 0.0 3.2 0.00 0.00 0.00 37 1009.5
20260502220934 16 192 4.8 6.4 0.00 0.00 0.00 37 1009.5
20260502220434 16 309 9.7 9.7 0.00 0.00 0.00 37 1009.6
20260502215931 16 234 0.0 8.0 0.00 0.00 0.00 37 1009.7
20260502215431 16 248 1.6 8.0 0.00 0.00 0.00 35 1009.7
20260502214931 16 290 9.7 6.4 0.00 0.00 0.00 37 1009.8
20260502214434 16 182 1.6 9.7 0.00 0.00 0.00 38 1009.7
20260502213931 15 5 9.7 6.4 0.00 0.00 0.00 39 1009.7
20260502213437 15 277 4.8 6.4 0.00 0.00 0.00 37 1009.7
20260502212932 15 262 0.0 4.8 0.00 0.00 0.00 39 1009.8
20260502212431 15 327 6.4 6.4 0.00 0.00 0.00 38 1009.7
20260502211934 15 291 1.6 14.5 0.00 0.00 0.00 38 1009.7
20260502211431 15 309 16.1 20.9 0.00 0.00 0.00 39 1009.6
20260502210935 16 5 6.4 9.7 0.00 0.00 0.00 37 1009.5
20260502210431 16 303 4.8 8.0 0.00 0.00 0.00 38 1009.4
20260502205931 16 323 1.6 4.8 0.00 0.00 0.00 40 1009.4
20260502205431 16 261 1.6 16.1 0.00 0.00 0.00 37 1009.4
20260502204931 16 223 4.8 9.7 0.00 0.00 0.00 37 1009.4
20260502204431 16 282 6.4 12.9 0.00 0.00 0.00 41 1009.5
20260502203937 15 36 9.7 17.7 0.00 0.00 0.00 38 1009.5
20260502203431 15 0 1.6 9.7 0.00 0.00 0.00 39 1009.5
20260502202934 16 313 9.7 12.9 0.00 0.00 0.00 38 1009.6
20260502202431 16 288 4.8 14.5 0.00 0.00 0.00 39 1009.7
20260502201934 15 248 1.6 12.9 0.00 0.00 0.00 41 1009.7
20260502201434 16 273 6.4 11.3 0.00 0.00 0.00 39 1009.6
20260502200937 16 280 9.7 16.1 0.00 0.00 0.00 37 1009.7
20260502200434 15 142 6.4 17.7 0.00 0.00 0.00 40 1009.7
20260502195934 15 290 9.7 17.7 0.00 0.00 0.00 40 1009.8
20260502195431 16 299 16.1 16.1 0.00 0.00 0.00 39 1009.9
20260502194936 16 0 11.3 16.1 0.00 0.00 0.00 41 1010.0
20260502194431 16 331 11.3 17.7 0.00 0.00 0.00 38 1010.0
20260502193940 17 342 6.4 6.4 0.00 0.00 0.00 36 1010.1
20260502193435 17 229 1.6 11.3 0.00 0.00 0.00 40 1010.1
20260502192934 16 200 4.8 9.7 0.00 0.00 0.00 39 1010.2
20260502192431 16 210 6.4 8.0 0.00 0.00 0.00 39 1010.4
20260502191934 15 271 0.0 14.5 0.00 0.00 0.00 38 1010.5
20260502191440 16 313 9.7 16.1 0.00 0.00 0.00 36 1010.6
20260502190931 16 286 14.5 14.5 0.00 0.00 0.00 36 1010.6
20260502190431 16 304 4.8 6.4 0.00 0.00 0.00 36 1010.6
20260502185931 16 275 4.8 6.4 0.00 0.00 0.00 33 1010.7
20260502185437 17 165 1.6 11.3 0.00 0.00 0.00 36 1010.7
20260502184934 16 175 4.8 16.1 0.00 0.00 0.00 39 1010.8
20260502184437 15 317 9.7 11.3 0.00 0.00 0.00 39 1010.9
20260502183931 15 277 14.5 14.5 0.00 0.00 0.00 39 1011.0
20260502183431 15 303 9.7 16.1 0.00 0.00 0.00 39 1011.0
20260502182930 16 250 9.7 16.1 0.00 0.00 0.00 38 1011.0
20260502182431 15 234 6.4 11.3 0.00 0.00 0.00 41 1011.0
20260502181934 15 0 4.8 17.7 0.00 0.00 0.00 41 1010.9
20260502181431 16 316 14.5 17.7 0.00 0.00 0.00 43 1011.0
20260502180937 16 325 20.9 16.1 0.00 0.00 0.00 39 1011.0
20260502180440 16 261 1.6 14.5 0.00 0.00 0.00 42 1011.1